Retour au catalogue

STARLINK-36451

ActifCommunicationsVLEO
NORAD 67339·PAYLOAD·🇺🇸 United States

Lancé Jan 9, 2026 depuis Cape Canaveral Space Force Station

Loading…

Prochains Passages (prochaines 24 heures)

TLE

FraisSource: CelesTrak SupGP

Époque: Sep 15, 2026, 02:50 UTC

1 67339C 26003F   26258.11854167 -.00041268  00000+0 -14948-2 0  2583
2 67339  43.0010 237.3751 0001040 266.7384  85.6971 15.27598415    11

Suivez STARLINK-36451 en temps réel avec AllMySat

Download on the App Store